[[{"header":{"parameterUnit":"m.s-1","parameterCategory":1,"la1":30.2991,"la2":30.254,"lo1":-89.0895,"lo2":-89.0444,"dy":0.0017,"dx":0.0017,"nx":28,"ny":28,"refTime":"2025-09-17T03:00:00:Z","depth":0,"parameterNumber":2,"parameterNumberName":"U-component_of_WINDS"},"data":[0,0,0,0,0,0,0,0,0,0,0,0,0,0,0,0,0,0,0,0,0,0,0,0,0,0,0,0,0,0,0,0,0,0,0,0,0,0,0,0,0,0,0,0,0,0,0,0,0,0,0,0,0,0,0,0,0,0,0.2196,0.2196,0,0.2198,0.2198,0.2198,0.221,0.221,0.221,0.2211,0.2213,0.2212,0.2212,0,0,0,0,0,0,0,0,0,0,0,0,0,0.2198,0.2198,0.2196,0.2196,0.2196,0.2198,0.2198,0.2198,0.221,0.221,0.221,0.2211,0.2213,0.2212,0.2212,0,0,0,0,0,0,0,0,0,0,0,0,0,0.2199,0.2198,0.2196,0.2202,0.2202,0.2198,0.2198,0.2198,0.221,0.221,0.221,0.2211,0.2213,0.2212,0.2212,0.2203,0,0,0.2211,0.2211,0,0,0,0,0,0,0,0,0.2199,0.2199,0.2201,0.2201,0.2202,0.2204,0.22,0.22,0.221,0.2207,0.2211,0.2211,0.2209,0.2209,0.2209,0.2203,0.2203,0.2211,0.2211,0.2211,0.2211,0,0,0,0,0,0,0,0.2199,0.2199,0.2197,0.2201,0.2201,0.2204,0.2204,0.22,0.2206,0.2207,0.2208,0.2208,0.221,0.2209,0.2209,0.2203,0.2211,0.2211,0.2211,0.2211,0.2187,0.2186,0,0,0,0,0,0,0.2198,0.2198,0.2197,0.2197,0.2201,0.2203,0.2204,0.2203,0.2206,0.2207,0.2208,0.2209,0.221,0.221,0.2209,0.2197,0.2211,0.2211,0.2211,0.2187,0.2187,0.2186,0,0,0,0,0,0,0.2198,0.2198,0.2196,0.2198,0.2198,0.2203,0.2202,0.2203,0.2202,0.2206,0.2207,0.2206,0.221,0.221,0.2204,0.2197,0.2211,0.221,0.2188,0.2187,0.2187,0.2173,0,0,0,0,0,0,0.2198,0.2198,0.2194,0.2198,0.2198,0.2191,0.2201,0.2203,0.2202,0.2203,0.2205,0.2206,0.221,0.2204,0.2204,0.2197,0.221,0.2189,0.2188,0.2187,0.2174,0.2172,0.217,0,0,0,0,0,0.2198,0.2191,0.2194,0.2194,0.2194,0.2191,0.2191,0.2196,0.2201,0.2198,0.22,0.2206,0.2198,0.2204,0.2203,0.2196,0.2189,0.2188,0.2187,0.2175,0.2172,0.217,0,0,0,0,0,0,0.2187,0.2191,0.2195,0.2189,0.2189,0.2193,0.2189,0.2193,0.2192,0.2193,0.22,0.22,0.2193,0.2194,0.22,0.2186,0.2194,0.2193,0.2186,0.2183,0.2181,0.2181,0.221,0,0,0,0,0,0.2183,0.2181,0.2185,0.2179,0.2179,0.2184,0.2183,0.2187,0.2187,0.2188,0.219,0.219,0.2187,0.2186,0.2184,0.2175,0.2174,0.217,0.2168,0.2166,0.2165,0.2158,0.2156,0.2183,0.2183,0.2183,0,0,0.2177,0.2179,0.2177,0.2177,0.2178,0.2174,0.2184,0.218,0.2178,0.2187,0.2181,0.2183,0.2183,0.2175,0.2172,0.2176,0.2157,0.2165,0.2163,0.2163,0.2157,0.2154,0.2152,0.2182,0.2182,0.2182,0,0,0.2162,0.2164,0.2159,0.2159,0.216,0.2163,0.2162,0.2165,0.2166,0.216,0.2167,0.2163,0.2159,0.2159,0.2158,0.2143,0.2147,0.2142,0.2131,0.2125,0.2123,0.2121,0.2114,0.2112,0.2141,0.2141,0.2141,0,0.2153,0.2149,0.2155,0.2151,0.215,0.2158,0.2152,0.2152,0.2153,0.2151,0.2156,0.215,0.2151,0.2143,0.2139,0.2139,0.2136,0.2141,0.2123,0.2121,0.212,0.2113,0.211,0.214,0.214,0.214,0.214,0,0.2138,0.2135,0.213,0.213,0.2128,0.2123,0.2128,0.2126,0.2129,0.2131,0.2125,0.2126,0.2124,0.2123,0.2126,0.2114,0.2116,0.2122,0.213,0.2116,0.211,0.2108,0.2139,0.2139,0.2139,0.214,0,0,0.2116,0.2119,0.2117,0.2117,0.2118,0.2115,0.211,0.2108,0.2105,0.2105,0.21,0.2096,0.2101,0.21,0.2104,0.2098,0.2084,0.2104,0.2104,0.2099,0.2069,0.2064,0.2061,0.2087,0.2087,0.2087,0.2068,0,0.2102,0.2093,0.2098,0.2088,0.2084,0.2092,0.2087,0.2087,0.2088,0.2085,0.2087,0.2083,0.2091,0.209,0.2085,0.2087,0.2078,0.2088,0.2082,0.2081,0.208,0.2058,0.2053,0.2035,0.2066,0.2066,0.2065,0,0.2084,0.2082,0.2072,0.2073,0.2072,0.2067,0.2065,0.2062,0.2061,0.2063,0.2061,0.2066,0.206,0.2068,0.2059,0.2066,0.2064,0.2064,0.2064,0.2062,0.2072,0.2055,0.203,0.2027,0.2062,0.2062,0.2062,0,0.2068,0.2063,0.2056,0.2056,0.2057,0.2053,0.2053,0.2053,0.2051,0.2049,0.2048,0.2045,0.2043,0.2041,0.2044,0.205,0.2034,0.2043,0.2034,0.2033,0.2029,0.2029,0.2002,0.203,0.203,0.203,0.203,0,0.205,0.2043,0.2049,0.2044,0.2036,0.2041,0.2033,0.2034,0.2034,0.2029,0.2036,0.2031,0.2036,0.2032,0.2034,0.2025,0.2025,0.2025,0.2026,0.2024,0.2024,0.2021,0.2022,0.2029,0.2029,0.2029,0.2029,0,0.2031,0.2034,0.2027,0.2028,0.2028,0.2022,0.2023,0.2018,0.202,0.2014,0.2013,0.2016,0.2011,0.2014,0.2009,0.2011,0.1998,0.2001,0.1999,0.1999,0.1989,0.1989,0.1959,0.1954,0.1986,0.1985,0.1985,0,0.2019,0.2013,0.2014,0.2011,0.2011,0.2007,0.2004,0.2009,0.2006,0.2005,0.2,0.1995,0.1992,0.1983,0.1984,0.198,0.1982,0.1972,0.1981,0.1979,0.198,0.198,0.1979,0.1969,0.1969,0.1969,0.1969,0,0.1997,0.1999,0.1995,0.1992,0.1989,0.1987,0.1985,0.1982,0.1987,0.1983,0.1978,0.1975,0.1969,0.1964,0.196,0.196,0.1964,0.1966,0.1963,0.196,0.1958,0.1958,0.1992,0.1966,0.1966,0.1966,0.1967,0.1967,0.198,0.1975,0.1974,0.197,0.1969,0.1967,0.1962,0.1963,0.1959,0.1954,0.1957,0.1951,0.1949,0.1944,0.1943,0.1938,0.1942,0.1938,0.1937,0.1936,0.1934,0.196,0.1937,0.1937,0.1937,0.1937,0.1937,0,0.1957,0.1957,0.1953,0.195,0.1946,0.1951,0.1949,0.1945,0.1939,0.1937,0.1933,0.1926,0.1921,0.1922,0.1917,0.1912,0.1914,0.191,0.191,0.1909,0.1931,0.1933,0.1909,0.1909,0.1909,0.1909,0.1909,0.1909,0.1945,0.1936,0.1938,0.1928,0.1928,0.1921,0.1919,0.1917,0.1915,0.1907,0.1903,0.1903,0.1902,0.1897,0.1892,0.1892,0.1889,0.1884,0.1885,0.1905,0.1908,0.1911,0.1913,0.1884,0.1884,0.1864,0.1864,0.1863]},{"header":{"parameterUnit":"m.s-1","parameterCategory":1,"la1":30.2991,"la2":30.254,"lo1":-89.0895,"lo2":-89.0444,"dy":0.0017,"dx":0.0017,"nx":28,"ny":28,"refTime":"2025-09-17T03:00:00:Z","depth":0,"parameterNumber":3,"parameterNumberName":"V-component_of_WINDS"},"data":[0,0,0,0,0,0,0,0,0,0,0,0,0,0,0,0,0,0,0,0,0,0,0,0,0,0,0,0,0,0,0,0,0,0,0,0,0,0,0,0,0,0,0,0,0,0,0,0,0,0,0,0,0,0,0,0,0,0,3.3498,3.3497,0,3.3462,3.3462,3.3461,3.3405,3.3404,3.3403,3.3402,3.3366,3.3366,3.3366,0,0,0,0,0,0,0,0,0,0,0,0,0,3.3518,3.3518,3.3498,3.3497,3.3497,3.3462,3.3462,3.3461,3.3405,3.3404,3.3403,3.3402,3.3366,3.3366,3.3366,0,0,0,0,0,0,0,0,0,0,0,0,0,3.3498,3.3518,3.3498,3.3465,3.3462,3.3462,3.3462,3.3461,3.3406,3.3404,3.3402,3.3401,3.3366,3.3366,3.3366,3.3396,0,0,3.3366,3.3366,0,0,0,0,0,0,0,0,3.3499,3.3498,3.347,3.3467,3.3463,3.3436,3.3455,3.3439,3.3406,3.3427,3.3402,3.34,3.3391,3.3388,3.3385,3.3394,3.3393,3.3366,3.3366,3.3366,3.3366,0,0,0,0,0,0,0,3.3501,3.3499,3.3484,3.347,3.3466,3.3452,3.3447,3.3452,3.3418,3.3425,3.3421,3.3417,3.3388,3.3385,3.3384,3.3392,3.3366,3.3366,3.3366,3.3366,3.3421,3.3423,0,0,0,0,0,0,3.3507,3.35,3.3485,3.3483,3.3478,3.3453,3.3448,3.3447,3.3417,3.3411,3.3419,3.3415,3.3386,3.3384,3.3382,3.3413,3.3366,3.3366,3.3365,3.342,3.3422,3.3423,0,0,0,0,0,0,3.3508,3.3506,3.3486,3.349,3.3487,3.3454,3.3453,3.3447,3.3443,3.3413,3.3406,3.3421,3.3385,3.3382,3.3392,3.3411,3.3365,3.3365,3.3418,3.3421,3.3423,3.3477,0,0,0,0,0,0,3.3508,3.3507,3.3518,3.3491,3.3487,3.3497,3.3454,3.3447,3.3443,3.3438,3.3414,3.3408,3.3383,3.3393,3.3392,3.341,3.3365,3.3416,3.3419,3.3422,3.3473,3.3481,3.3487,0,0,0,0,0,3.3509,3.3535,3.3519,3.3517,3.35,3.3498,3.3496,3.3466,3.3445,3.3456,3.3436,3.3409,3.341,3.3394,3.3393,3.3412,3.3415,3.3418,3.3422,3.347,3.3479,3.3487,0,0,0,0,0,0,3.3565,3.3531,3.3512,3.353,3.3518,3.3489,3.3501,3.3478,3.3471,3.3466,3.343,3.3425,3.3439,3.3427,3.341,3.3438,3.3408,3.3412,3.3445,3.3454,3.346,3.3462,3.3365,0,0,0,0,0,3.358,3.3582,3.3552,3.357,3.3565,3.3534,3.3533,3.3511,3.3497,3.3491,3.3472,3.3459,3.3455,3.3454,3.345,3.3472,3.3465,3.3484,3.3491,3.3497,3.3499,3.3508,3.3515,3.3435,3.3435,3.3435,0,0,3.361,3.3591,3.3594,3.3581,3.3568,3.357,3.353,3.3534,3.3535,3.3492,3.3499,3.3485,3.3468,3.3483,3.3489,3.3473,3.352,3.3501,3.3506,3.3505,3.3512,3.3519,3.3526,3.3437,3.3436,3.3436,0,0,3.3664,3.3651,3.3664,3.3652,3.3634,3.3614,3.3617,3.3592,3.358,3.3587,3.3554,3.3555,3.3551,3.3539,3.3533,3.3583,3.3557,3.3583,3.3618,3.3627,3.3633,3.3638,3.3653,3.366,3.3586,3.3586,3.3586,0,3.3703,3.3704,3.3674,3.3679,3.3673,3.3635,3.3647,3.3637,3.3619,3.3615,3.3598,3.3591,3.3577,3.3588,3.36,3.3598,3.3599,3.3584,3.3635,3.364,3.3644,3.3658,3.3664,3.3589,3.3589,3.3589,3.3588,0,3.3752,3.3754,3.3766,3.3748,3.3745,3.3754,3.3724,3.3724,3.3703,3.3684,3.3691,3.3673,3.3663,3.3665,3.3645,3.3673,3.3663,3.3641,3.361,3.3655,3.3668,3.3673,3.3594,3.3593,3.3592,3.3591,0,0,3.3839,3.3804,3.3809,3.3799,3.3776,3.3777,3.3784,3.3774,3.3774,3.3763,3.3766,3.3764,3.3743,3.3736,3.3715,3.3722,3.376,3.3699,3.3698,3.3708,3.3786,3.3801,3.3808,3.3744,3.3745,3.3745,3.3786,0,3.3886,3.3896,3.3868,3.3884,3.3884,3.3847,3.3853,3.384,3.3823,3.382,3.3801,3.3799,3.3773,3.3768,3.3774,3.3754,3.3774,3.3751,3.3745,3.3745,3.3747,3.3814,3.383,3.387,3.3791,3.3792,3.3793,0,3.3943,3.3933,3.3949,3.3924,3.3923,3.3929,3.3916,3.3915,3.3899,3.3886,3.3878,3.3853,3.3857,3.3829,3.3833,3.3818,3.3814,3.3804,3.3805,3.3801,3.377,3.381,3.3882,3.3887,3.3801,3.38,3.38,0,3.4001,3.3993,3.4,3.3994,3.3966,3.397,3.3959,3.3941,3.3936,3.3926,3.3922,3.3914,3.3908,3.3901,3.3874,3.3857,3.3881,3.3851,3.3869,3.3869,3.3873,3.3873,3.3943,3.3876,3.3876,3.3876,3.3875,0,3.4055,3.4065,3.4026,3.403,3.4041,3.401,3.4021,3.4005,3.399,3.399,3.3959,3.396,3.3925,3.3922,3.3902,3.3907,3.3906,3.3894,3.3888,3.3895,3.3896,3.389,3.3886,3.3877,3.3877,3.3876,3.3876,0,3.412,3.4095,3.41,3.4073,3.4066,3.4075,3.4051,3.4054,3.4035,3.4036,3.4034,3.4005,3.4,3.3973,3.3961,3.3947,3.3959,3.3949,3.3964,3.396,3.3977,3.3975,3.4044,3.4051,3.3982,3.3983,3.3983,0,3.4155,3.4162,3.4135,3.4133,3.4123,3.412,3.4115,3.4085,3.4081,3.4062,3.4067,3.4059,3.4051,3.4044,3.4021,3.4012,3.4,3.4025,3.3998,3.4004,3.3997,3.3995,3.3995,3.4029,3.403,3.4031,3.4032,0,3.4218,3.4205,3.4199,3.4189,3.4184,3.4174,3.4162,3.4163,3.4129,3.4126,3.412,3.4114,3.4102,3.4094,3.4081,3.4068,3.4044,3.4041,3.4044,3.405,3.4057,3.4051,3.3977,3.4039,3.4038,3.4037,3.4037,3.4037,3.4267,3.4271,3.4252,3.4247,3.4235,3.4225,3.4225,3.4206,3.4201,3.4188,3.4171,3.4167,3.415,3.4129,3.4119,3.4114,3.4101,3.4106,3.4107,3.4108,3.411,3.406,3.4112,3.4112,3.4112,3.4112,3.4112,0,3.4327,3.4313,3.4308,3.4292,3.4287,3.4266,3.4252,3.4249,3.4246,3.4232,3.4224,3.4216,3.4209,3.4185,3.4175,3.4176,3.4164,3.4174,3.4172,3.4169,3.4125,3.4122,3.4183,3.4183,3.4183,3.4183,3.4183,3.4183,3.4357,3.4361,3.4346,3.4344,3.433,3.4326,3.4319,3.4309,3.4297,3.429,3.4283,3.4268,3.425,3.4238,3.4229,3.4222,3.4219,3.4231,3.4221,3.4179,3.4172,3.4166,3.4163,3.4232,3.4232,3.4265,3.4265,3.4265]}]]